Year,Month,Day,Hour,Minute,Value (Times are PST for temperature in C)
2017,06,26,00,00,19.30
2017,06,26,00,01,19.30
2017,06,26,00,02,19.30
2017,06,26,00,03,19.30
2017,06,26,00,04,19.20
2017,06,26,00,05,19.20
2017,06,26,00,06,19.20
2017,06,26,00,07,19.20
2017,06,26,00,08,19.20
2017,06,26,00,09,19.10
2017,06,26,00,10,19.10
2017,06,26,00,11,19.10
2017,06,26,00,12,19.10
2017,06,26,00,13,19.00
2017,06,26,00,14,19.00
2017,06,26,00,15,18.90
2017,06,26,00,16,18.90
2017,06,26,00,17,18.90
2017,06,26,00,18,18.90
2017,06,26,00,19,18.80
2017,06,26,00,20,18.80
2017,06,26,00,21,18.80
2017,06,26,00,22,18.80
2017,06,26,00,23,18.80
2017,06,26,00,24,18.80
2017,06,26,00,25,18.80
2017,06,26,00,26,18.80
2017,06,26,00,27,18.80
2017,06,26,00,28,18.80
2017,06,26,00,29,18.80
2017,06,26,00,30,18.80
2017,06,26,00,31,18.80
2017,06,26,00,32,18.70
2017,06,26,00,33,18.70
2017,06,26,00,34,18.70
2017,06,26,00,35,18.60
2017,06,26,00,36,18.60
2017,06,26,00,37,18.60
2017,06,26,00,38,18.50
2017,06,26,00,39,18.50
2017,06,26,00,40,18.50
2017,06,26,00,41,18.50
2017,06,26,00,42,18.50
2017,06,26,00,43,18.40
2017,06,26,00,44,18.40
2017,06,26,00,45,18.40
2017,06,26,00,46,18.40
2017,06,26,00,47,18.40
2017,06,26,00,48,18.40
2017,06,26,00,49,18.30
2017,06,26,00,50,18.30
2017,06,26,00,51,18.30
2017,06,26,00,52,18.30
2017,06,26,00,53,18.30
2017,06,26,00,54,18.30
2017,06,26,00,55,18.30
2017,06,26,00,56,18.30
2017,06,26,00,57,18.30
2017,06,26,00,58,18.20
2017,06,26,00,59,18.20
2017,06,26,01,00,18.30
2017,06,26,01,01,18.30
2017,06,26,01,02,18.30
2017,06,26,01,03,18.30
2017,06,26,01,04,18.30
2017,06,26,01,05,18.30
2017,06,26,01,06,18.30
2017,06,26,01,07,18.20
2017,06,26,01,08,18.20
2017,06,26,01,09,18.10
2017,06,26,01,10,18.10
2017,06,26,01,11,18.00
2017,06,26,01,12,17.90
2017,06,26,01,13,17.80
2017,06,26,01,14,17.90
2017,06,26,01,15,18.10
2017,06,26,01,16,18.40
2017,06,26,01,17,18.60
2017,06,26,01,18,18.80
2017,06,26,01,19,18.90
2017,06,26,01,20,19.10
2017,06,26,01,21,19.10
2017,06,26,01,22,19.20
2017,06,26,01,23,19.20
2017,06,26,01,24,19.20
2017,06,26,01,25,19.20
2017,06,26,01,26,19.10
2017,06,26,01,27,19.10
2017,06,26,01,28,19.10
2017,06,26,01,29,19.10
2017,06,26,01,30,19.00
2017,06,26,01,31,19.00
2017,06,26,01,32,19.00
2017,06,26,01,33,18.90
2017,06,26,01,34,18.80
2017,06,26,01,35,18.60
2017,06,26,01,36,18.30
2017,06,26,01,37,18.10
2017,06,26,01,38,17.90
2017,06,26,01,39,17.70
2017,06,26,01,40,17.70
2017,06,26,01,41,17.60
2017,06,26,01,42,17.60
2017,06,26,01,43,17.60
2017,06,26,01,44,17.60
2017,06,26,01,45,17.60
2017,06,26,01,46,17.50
2017,06,26,01,47,17.40
2017,06,26,01,48,17.30
2017,06,26,01,49,17.30
2017,06,26,01,50,17.30
2017,06,26,01,51,17.20
2017,06,26,01,52,17.20
2017,06,26,01,53,17.20
2017,06,26,01,54,17.20
2017,06,26,01,55,17.10
2017,06,26,01,56,17.10
2017,06,26,01,57,17.00
2017,06,26,01,58,17.00
2017,06,26,01,59,17.00
2017,06,26,02,00,16.90
2017,06,26,02,01,16.90
2017,06,26,02,02,16.80
2017,06,26,02,03,16.80
2017,06,26,02,04,16.70
2017,06,26,02,05,16.70
2017,06,26,02,06,16.70
2017,06,26,02,07,16.70
2017,06,26,02,08,16.70
2017,06,26,02,09,16.70
2017,06,26,02,10,16.70
2017,06,26,02,11,16.70
2017,06,26,02,12,16.80
2017,06,26,02,13,16.70
2017,06,26,02,14,16.70
2017,06,26,02,15,16.70
2017,06,26,02,16,16.70
2017,06,26,02,17,16.70
2017,06,26,02,18,16.70
2017,06,26,02,19,16.70
2017,06,26,02,20,16.60
2017,06,26,02,21,16.60
2017,06,26,02,22,16.60
2017,06,26,02,23,16.50
2017,06,26,02,24,16.50
2017,06,26,02,25,16.60
2017,06,26,02,26,16.80
2017,06,26,02,27,17.10
2017,06,26,02,28,17.30
2017,06,26,02,29,17.60
2017,06,26,02,30,17.80
2017,06,26,02,31,18.10
2017,06,26,02,32,18.50
2017,06,26,02,33,19.00
2017,06,26,02,34,19.50
2017,06,26,02,35,20.00
2017,06,26,02,36,20.50
2017,06,26,02,37,20.80
2017,06,26,02,38,21.10
2017,06,26,02,39,21.30
2017,06,26,02,40,21.40
2017,06,26,02,41,21.60
2017,06,26,02,42,21.70
2017,06,26,02,43,21.80
2017,06,26,02,44,21.90
2017,06,26,02,45,21.90
2017,06,26,02,46,22.00
2017,06,26,02,47,22.00
2017,06,26,02,48,22.10
2017,06,26,02,49,22.10
2017,06,26,02,50,22.20
2017,06,26,02,51,22.20
2017,06,26,02,52,22.20
2017,06,26,02,53,22.20
2017,06,26,02,54,22.30
2017,06,26,02,55,22.30
2017,06,26,02,56,22.30
2017,06,26,02,57,22.30
2017,06,26,02,58,22.20
2017,06,26,02,59,22.20
2017,06,26,03,00,22.30
2017,06,26,03,01,22.30
2017,06,26,03,02,22.30
2017,06,26,03,03,22.30
2017,06,26,03,04,22.30
2017,06,26,03,05,22.20
2017,06,26,03,06,22.10
2017,06,26,03,07,22.10
2017,06,26,03,08,22.10
2017,06,26,03,09,22.00
2017,06,26,03,10,22.00
2017,06,26,03,11,22.00
2017,06,26,03,12,21.90
2017,06,26,03,13,21.90
2017,06,26,03,14,21.90
2017,06,26,03,15,21.80
2017,06,26,03,16,21.80
2017,06,26,03,17,21.80
2017,06,26,03,18,21.70
2017,06,26,03,19,21.60
2017,06,26,03,20,21.50
2017,06,26,03,21,21.30
2017,06,26,03,22,21.30
2017,06,26,03,23,21.20
2017,06,26,03,24,21.10
2017,06,26,03,25,21.00
2017,06,26,03,26,20.90
2017,06,26,03,27,20.90
2017,06,26,03,28,20.80
2017,06,26,03,29,20.80
2017,06,26,03,30,20.70
2017,06,26,03,31,20.60
2017,06,26,03,32,20.50
2017,06,26,03,33,20.40
2017,06,26,03,34,20.20
2017,06,26,03,35,20.10
2017,06,26,03,36,19.90
2017,06,26,03,37,19.70
2017,06,26,03,38,19.60
2017,06,26,03,39,19.40
2017,06,26,03,40,19.30
2017,06,26,03,41,19.20
2017,06,26,03,42,19.10
2017,06,26,03,43,19.00
2017,06,26,03,44,18.90
2017,06,26,03,45,18.90
2017,06,26,03,46,18.80
2017,06,26,03,47,18.80
2017,06,26,03,48,18.80
2017,06,26,03,49,18.80
2017,06,26,03,50,18.80
2017,06,26,03,51,18.80
2017,06,26,03,52,18.80
2017,06,26,03,53,18.80
2017,06,26,03,54,18.90
2017,06,26,03,55,19.00
2017,06,26,03,56,19.00
2017,06,26,03,57,19.10
2017,06,26,03,58,19.20
2017,06,26,03,59,19.20
2017,06,26,04,00,19.20
2017,06,26,04,01,19.20
2017,06,26,04,02,19.20
2017,06,26,04,03,19.20
2017,06,26,04,04,19.20
2017,06,26,04,05,19.30
2017,06,26,04,06,19.30
2017,06,26,04,07,19.30
2017,06,26,04,08,19.30
2017,06,26,04,09,19.40
2017,06,26,04,10,19.40
2017,06,26,04,11,19.40
2017,06,26,04,12,19.40
2017,06,26,04,13,19.40
2017,06,26,04,14,19.30
2017,06,26,04,15,19.30
2017,06,26,04,16,19.30
2017,06,26,04,17,19.30
2017,06,26,04,18,19.30
2017,06,26,04,19,19.40
2017,06,26,04,20,19.40
2017,06,26,04,21,19.40
2017,06,26,04,22,19.40
2017,06,26,04,23,19.40
2017,06,26,04,24,19.40
2017,06,26,04,25,19.30
2017,06,26,04,26,19.30
2017,06,26,04,27,19.30
2017,06,26,04,28,19.20
2017,06,26,04,29,19.20
2017,06,26,04,30,19.20
2017,06,26,04,31,19.10
2017,06,26,04,32,19.10
2017,06,26,04,33,19.00
2017,06,26,04,34,19.00
2017,06,26,04,35,18.90
2017,06,26,04,36,18.90
2017,06,26,04,37,18.90
2017,06,26,04,38,18.80
2017,06,26,04,39,18.80
2017,06,26,04,40,18.80
2017,06,26,04,41,18.80
2017,06,26,04,42,18.80
2017,06,26,04,43,18.70
2017,06,26,04,44,18.60
2017,06,26,04,45,18.30
2017,06,26,04,46,18.10
2017,06,26,04,47,17.90
2017,06,26,04,48,17.80
2017,06,26,04,49,17.60
2017,06,26,04,50,17.40
2017,06,26,04,51,17.30
2017,06,26,04,52,17.20
2017,06,26,04,53,17.10
2017,06,26,04,54,17.00
2017,06,26,04,55,16.90
2017,06,26,04,56,16.80
2017,06,26,04,57,16.70
2017,06,26,04,58,16.60
2017,06,26,04,59,16.50
2017,06,26,05,00,16.40
2017,06,26,05,01,16.30
2017,06,26,05,02,16.20
2017,06,26,05,03,16.10
2017,06,26,05,04,16.00
2017,06,26,05,05,15.90
2017,06,26,05,06,15.90
2017,06,26,05,07,15.80
2017,06,26,05,08,15.70
2017,06,26,05,09,15.70
2017,06,26,05,10,15.70
2017,06,26,05,11,15.60
2017,06,26,05,12,15.50
2017,06,26,05,13,15.40
2017,06,26,05,14,15.30
2017,06,26,05,15,15.20
2017,06,26,05,16,15.10
2017,06,26,05,17,15.00
2017,06,26,05,18,15.00
2017,06,26,05,19,15.00
2017,06,26,05,20,14.90
2017,06,26,05,21,14.90
2017,06,26,05,22,14.90
2017,06,26,05,23,14.80
2017,06,26,05,24,14.70
2017,06,26,05,25,14.60
2017,06,26,05,26,14.50
2017,06,26,05,27,14.40
2017,06,26,05,28,14.30
2017,06,26,05,29,14.30
2017,06,26,05,30,14.20
2017,06,26,05,31,14.20
2017,06,26,05,32,14.20
2017,06,26,05,33,14.20
2017,06,26,05,34,14.20
2017,06,26,05,35,14.00
2017,06,26,05,36,14.00
2017,06,26,05,37,13.90
2017,06,26,05,38,13.90
2017,06,26,05,39,13.90
2017,06,26,05,40,13.90
2017,06,26,05,41,13.90
2017,06,26,05,42,13.80
2017,06,26,05,43,13.80
2017,06,26,05,44,13.80
2017,06,26,05,45,13.80
2017,06,26,05,46,13.80
2017,06,26,05,47,13.80
2017,06,26,05,48,13.80
2017,06,26,05,49,13.80
2017,06,26,05,50,13.70
2017,06,26,05,51,13.70
2017,06,26,05,52,13.70
2017,06,26,05,53,13.70
2017,06,26,05,54,13.70
2017,06,26,05,55,13.70
2017,06,26,05,56,13.70
2017,06,26,05,57,13.70
2017,06,26,05,58,13.70
2017,06,26,05,59,13.70
2017,06,26,06,00,13.70
2017,06,26,06,01,13.70
2017,06,26,06,02,13.60
2017,06,26,06,03,13.60
2017,06,26,06,04,13.60
2017,06,26,06,05,13.60
2017,06,26,06,06,13.50
2017,06,26,06,07,13.50
2017,06,26,06,08,13.50
2017,06,26,06,09,13.40
2017,06,26,06,10,13.40
2017,06,26,06,11,13.40
2017,06,26,06,12,13.40
2017,06,26,06,13,13.40
2017,06,26,06,14,13.40
2017,06,26,06,15,13.40
2017,06,26,06,16,13.40
2017,06,26,06,17,13.40
2017,06,26,06,18,13.50
2017,06,26,06,19,13.50
2017,06,26,06,20,13.50
2017,06,26,06,21,13.50
2017,06,26,06,22,13.60
2017,06,26,06,23,13.60
2017,06,26,06,24,13.60
2017,06,26,06,25,13.60
2017,06,26,06,26,13.60
2017,06,26,06,27,13.60
2017,06,26,06,28,13.70
2017,06,26,06,29,13.70
2017,06,26,06,30,13.70
2017,06,26,06,31,13.70
2017,06,26,06,32,13.80
2017,06,26,06,33,13.80
2017,06,26,06,34,13.80
2017,06,26,06,35,13.80
2017,06,26,06,36,13.80
2017,06,26,06,37,13.80
2017,06,26,06,38,13.80
2017,06,26,06,39,13.80
2017,06,26,06,40,13.80
2017,06,26,06,41,13.80
2017,06,26,06,42,13.90
2017,06,26,06,43,13.90
2017,06,26,06,44,14.00
2017,06,26,06,45,14.00
2017,06,26,06,46,14.10
2017,06,26,06,47,14.10
2017,06,26,06,48,14.20
2017,06,26,06,49,14.30
2017,06,26,06,50,14.30
2017,06,26,06,51,14.40
2017,06,26,06,52,14.40
2017,06,26,06,53,14.50
2017,06,26,06,54,14.60
2017,06,26,06,55,14.60
2017,06,26,06,56,14.70
2017,06,26,06,57,14.80
2017,06,26,06,58,14.80
2017,06,26,06,59,14.80
2017,06,26,07,00,14.90
2017,06,26,07,01,14.90
2017,06,26,07,02,15.00
2017,06,26,07,03,15.00
2017,06,26,07,04,15.10
2017,06,26,07,05,15.10
2017,06,26,07,06,15.20
2017,06,26,07,07,15.20
2017,06,26,07,08,15.30
2017,06,26,07,09,15.30
2017,06,26,07,10,15.40
2017,06,26,07,11,15.40
2017,06,26,07,12,15.40
2017,06,26,07,13,15.40
2017,06,26,07,14,15.50
2017,06,26,07,15,15.50
2017,06,26,07,16,15.60
2017,06,26,07,17,15.60
2017,06,26,07,18,15.70
2017,06,26,07,19,15.70
2017,06,26,07,20,15.80
2017,06,26,07,21,15.80
2017,06,26,07,22,15.90
2017,06,26,07,23,15.90
2017,06,26,07,24,16.00
2017,06,26,07,25,16.00
2017,06,26,07,26,16.10
2017,06,26,07,27,16.10
2017,06,26,07,28,16.10
2017,06,26,07,29,16.10
2017,06,26,07,30,16.10
2017,06,26,07,31,16.20
2017,06,26,07,32,16.20
2017,06,26,07,33,16.30
2017,06,26,07,34,16.30
2017,06,26,07,35,16.30
2017,06,26,07,36,16.40
2017,06,26,07,37,16.40
2017,06,26,07,38,16.40
2017,06,26,07,39,16.40
2017,06,26,07,40,16.50
2017,06,26,07,41,16.50
2017,06,26,07,42,16.50
2017,06,26,07,43,16.50
2017,06,26,07,44,16.50
2017,06,26,07,45,16.50
2017,06,26,07,46,16.50
2017,06,26,07,47,16.60
2017,06,26,07,48,16.60
2017,06,26,07,49,16.60
2017,06,26,07,50,16.70
2017,06,26,07,51,16.70
2017,06,26,07,52,16.70
2017,06,26,07,53,16.70
2017,06,26,07,54,16.70
2017,06,26,07,55,16.80
2017,06,26,07,56,16.80
2017,06,26,07,57,16.80
2017,06,26,07,58,16.80
2017,06,26,07,59,16.80
2017,06,26,08,00,16.70
2017,06,26,08,01,16.60
2017,06,26,08,02,16.50
2017,06,26,08,03,16.40
2017,06,26,08,04,16.40
2017,06,26,08,05,16.40
2017,06,26,08,06,16.40
2017,06,26,08,07,16.40
2017,06,26,08,08,16.40
2017,06,26,08,09,16.40
2017,06,26,08,10,16.50
2017,06,26,08,11,16.50
2017,06,26,08,12,16.50
2017,06,26,08,13,16.50
2017,06,26,08,14,16.40
2017,06,26,08,15,16.30
2017,06,26,08,16,16.00
2017,06,26,08,17,15.80
2017,06,26,08,18,15.50
2017,06,26,08,19,15.30
2017,06,26,08,20,15.20
2017,06,26,08,21,15.10
2017,06,26,08,22,15.00
2017,06,26,08,23,14.90
2017,06,26,08,24,14.90
2017,06,26,08,25,14.80
2017,06,26,08,26,14.80
2017,06,26,08,27,14.80
2017,06,26,08,28,14.80
2017,06,26,08,29,14.80
2017,06,26,08,30,14.80
2017,06,26,08,31,14.90
2017,06,26,08,32,14.90
2017,06,26,08,33,15.00
2017,06,26,08,34,15.10
2017,06,26,08,35,15.20
2017,06,26,08,36,15.30
2017,06,26,08,37,15.40
2017,06,26,08,38,15.50
2017,06,26,08,39,15.50
2017,06,26,08,40,15.60
2017,06,26,08,41,15.60
2017,06,26,08,42,15.70
2017,06,26,08,43,15.70
2017,06,26,08,44,15.70
2017,06,26,08,45,15.80
2017,06,26,08,46,15.80
2017,06,26,08,47,15.80
2017,06,26,08,48,15.90
2017,06,26,08,49,15.90
2017,06,26,08,50,15.90
2017,06,26,08,51,15.90
2017,06,26,08,52,15.90
2017,06,26,08,53,16.00
2017,06,26,08,54,16.00
2017,06,26,08,55,16.10
2017,06,26,08,56,16.10
2017,06,26,08,57,16.20
2017,06,26,08,58,16.20
2017,06,26,08,59,16.30
2017,06,26,09,00,16.30
2017,06,26,09,01,16.30
2017,06,26,09,02,16.40
2017,06,26,09,03,16.40
2017,06,26,09,04,16.50
2017,06,26,09,05,16.50
2017,06,26,09,06,16.60
2017,06,26,09,07,16.60
2017,06,26,09,08,16.60
2017,06,26,09,09,16.60
2017,06,26,09,10,16.60
2017,06,26,09,11,16.70
2017,06,26,09,12,16.70
2017,06,26,09,13,16.80
2017,06,26,09,14,16.80
2017,06,26,09,15,16.80
2017,06,26,09,16,16.80
2017,06,26,09,17,16.90
2017,06,26,09,18,16.90
2017,06,26,09,19,16.80
2017,06,26,09,20,16.70
2017,06,26,09,21,16.50
2017,06,26,09,22,16.40
2017,06,26,09,23,16.10
2017,06,26,09,24,15.80
2017,06,26,09,25,15.60
2017,06,26,09,26,15.50
2017,06,26,09,27,15.40
2017,06,26,09,28,15.50
2017,06,26,09,29,15.50
2017,06,26,09,30,15.60
2017,06,26,09,31,15.70
2017,06,26,09,32,15.80
2017,06,26,09,33,15.90
2017,06,26,09,34,15.90
2017,06,26,09,35,15.90
2017,06,26,09,36,15.90
2017,06,26,09,37,15.90
2017,06,26,09,38,15.90
2017,06,26,09,39,15.80
2017,06,26,09,40,15.80
2017,06,26,09,41,15.90
2017,06,26,09,42,15.90
2017,06,26,09,43,15.90
2017,06,26,09,44,16.00
2017,06,26,09,45,16.10
2017,06,26,09,46,16.10
2017,06,26,09,47,16.20
2017,06,26,09,48,16.20
2017,06,26,09,49,16.30
2017,06,26,09,50,16.30
2017,06,26,09,51,16.30
2017,06,26,09,52,16.30
2017,06,26,09,53,16.20
2017,06,26,09,54,16.20
2017,06,26,09,55,16.10
2017,06,26,09,56,16.20
2017,06,26,09,57,16.20
2017,06,26,09,58,16.30
2017,06,26,09,59,16.30
2017,06,26,10,00,16.30
2017,06,26,10,01,16.30
2017,06,26,10,02,16.40
2017,06,26,10,03,16.40
2017,06,26,10,04,16.50
2017,06,26,10,05,16.60
2017,06,26,10,06,16.70
2017,06,26,10,07,16.80
2017,06,26,10,08,16.90
2017,06,26,10,09,16.90
2017,06,26,10,10,16.90
2017,06,26,10,11,17.00
2017,06,26,10,12,17.10
2017,06,26,10,13,17.10
2017,06,26,10,14,17.10
2017,06,26,10,15,17.10
2017,06,26,10,16,17.20
2017,06,26,10,17,17.20
2017,06,26,10,18,17.20
2017,06,26,10,19,17.20
2017,06,26,10,20,17.20
2017,06,26,10,21,17.30
2017,06,26,10,22,17.30
2017,06,26,10,23,17.30
2017,06,26,10,24,17.30
2017,06,26,10,25,17.40
2017,06,26,10,26,17.40
2017,06,26,10,27,17.30
2017,06,26,10,28,17.30
2017,06,26,10,29,17.30
2017,06,26,10,30,17.30
2017,06,26,10,31,17.30
2017,06,26,10,32,17.40
2017,06,26,10,33,17.40
2017,06,26,10,34,17.40
2017,06,26,10,35,17.50
2017,06,26,10,36,17.50
2017,06,26,10,37,17.60
2017,06,26,10,38,17.60
2017,06,26,10,39,17.60
2017,06,26,10,40,17.70
2017,06,26,10,41,17.70
2017,06,26,10,42,17.70
2017,06,26,10,43,17.80
2017,06,26,10,44,17.80
2017,06,26,10,45,17.80
2017,06,26,10,46,17.90
2017,06,26,10,47,17.90
2017,06,26,10,48,17.90
2017,06,26,10,49,17.80
2017,06,26,10,50,17.80
2017,06,26,10,51,17.70
2017,06,26,10,52,17.60
2017,06,26,10,53,17.50
2017,06,26,10,54,17.40
2017,06,26,10,55,17.30
2017,06,26,10,56,17.20
2017,06,26,10,57,17.10
2017,06,26,10,58,17.00
2017,06,26,10,59,16.90
2017,06,26,11,00,16.80
2017,06,26,11,01,16.70
2017,06,26,11,02,16.70
2017,06,26,11,03,16.60
2017,06,26,11,04,16.50
2017,06,26,11,05,16.40
2017,06,26,11,06,16.30
2017,06,26,11,07,16.20
2017,06,26,11,08,16.20
2017,06,26,11,09,16.20
2017,06,26,11,10,16.20
2017,06,26,11,11,16.20
2017,06,26,11,12,16.20
2017,06,26,11,13,16.30
2017,06,26,11,14,16.30
2017,06,26,11,15,16.30
2017,06,26,11,16,16.40
2017,06,26,11,17,16.50
2017,06,26,11,18,16.60
2017,06,26,11,19,16.70
2017,06,26,11,20,16.70
2017,06,26,11,21,16.70
2017,06,26,11,22,16.70
2017,06,26,11,23,16.80
2017,06,26,11,24,16.80
2017,06,26,11,25,16.80
2017,06,26,11,26,16.80
2017,06,26,11,27,16.90
2017,06,26,11,28,16.90
2017,06,26,11,29,16.90
2017,06,26,11,30,16.90
2017,06,26,11,31,16.90
2017,06,26,11,32,16.90
2017,06,26,11,33,16.90
2017,06,26,11,34,16.90
2017,06,26,11,35,16.90
2017,06,26,11,36,16.90
2017,06,26,11,37,16.80
2017,06,26,11,38,16.70
2017,06,26,11,39,16.70
2017,06,26,11,40,16.70
2017,06,26,11,41,16.70
2017,06,26,11,42,16.70
2017,06,26,11,43,16.80
2017,06,26,11,44,16.90
2017,06,26,11,45,17.00
2017,06,26,11,46,17.00
2017,06,26,11,47,17.10
2017,06,26,11,48,17.10
2017,06,26,11,49,17.20
2017,06,26,11,50,17.20
2017,06,26,11,51,17.30
2017,06,26,11,52,17.30
2017,06,26,11,53,17.40
2017,06,26,11,54,17.50
2017,06,26,11,55,17.60
2017,06,26,11,56,17.60
2017,06,26,11,57,17.70
2017,06,26,11,58,17.70
2017,06,26,11,59,17.80
2017,06,26,12,00,17.80
2017,06,26,12,01,17.90
2017,06,26,12,02,17.80
2017,06,26,12,03,17.80
2017,06,26,12,04,17.70
2017,06,26,12,05,17.50
2017,06,26,12,06,17.40
2017,06,26,12,07,17.20
2017,06,26,12,08,17.00
2017,06,26,12,09,16.90
2017,06,26,12,10,16.80
2017,06,26,12,11,16.60
2017,06,26,12,12,16.60
2017,06,26,12,13,16.60
2017,06,26,12,14,16.60
2017,06,26,12,15,16.60
2017,06,26,12,16,16.50
2017,06,26,12,17,16.40
2017,06,26,12,18,16.40
2017,06,26,12,19,16.40
2017,06,26,12,20,16.40
2017,06,26,12,21,16.40
2017,06,26,12,22,16.50
2017,06,26,12,23,16.50
2017,06,26,12,24,16.60
2017,06,26,12,25,16.70
2017,06,26,12,26,16.80
2017,06,26,12,27,16.80
2017,06,26,12,28,16.90
2017,06,26,12,29,16.90
2017,06,26,12,30,17.00
2017,06,26,12,31,17.10
2017,06,26,12,32,17.10
2017,06,26,12,33,17.20
2017,06,26,12,34,17.20
2017,06,26,12,35,17.20
2017,06,26,12,36,17.30
2017,06,26,12,37,17.30
2017,06,26,12,38,17.30
2017,06,26,12,39,17.30
2017,06,26,12,40,17.20
2017,06,26,12,41,17.10
2017,06,26,12,42,16.90
2017,06,26,12,43,16.80
2017,06,26,12,44,16.80
2017,06,26,12,45,16.80
2017,06,26,12,46,16.80
2017,06,26,12,47,16.80
2017,06,26,12,48,16.70
2017,06,26,12,49,16.70
2017,06,26,12,50,16.70
2017,06,26,12,51,16.70
2017,06,26,12,52,16.70
2017,06,26,12,53,16.70
2017,06,26,12,54,16.80
2017,06,26,12,55,16.90
2017,06,26,12,56,16.90
2017,06,26,12,57,17.00
2017,06,26,12,58,17.10
2017,06,26,12,59,17.10
2017,06,26,13,00,17.10
2017,06,26,13,01,17.10
2017,06,26,13,02,17.20
2017,06,26,13,03,17.20
2017,06,26,13,04,17.00
2017,06,26,13,05,16.80
2017,06,26,13,06,16.50
2017,06,26,13,07,16.40
2017,06,26,13,08,16.30
2017,06,26,13,09,16.30
2017,06,26,13,10,16.30
2017,06,26,13,11,16.30
2017,06,26,13,12,16.10
2017,06,26,13,13,16.00
2017,06,26,13,14,15.90
2017,06,26,13,15,15.80
2017,06,26,13,16,15.80
2017,06,26,13,17,15.80
2017,06,26,13,18,15.70
2017,06,26,13,19,15.70
2017,06,26,13,20,15.70
2017,06,26,13,21,15.80
2017,06,26,13,22,15.80
2017,06,26,13,23,15.80
2017,06,26,13,24,15.80
2017,06,26,13,25,15.80
2017,06,26,13,26,15.80
2017,06,26,13,27,15.80
2017,06,26,13,28,15.80
2017,06,26,13,29,15.80
2017,06,26,13,30,15.80
2017,06,26,13,31,15.90
2017,06,26,13,32,15.90
2017,06,26,13,33,15.90
2017,06,26,13,34,16.00
2017,06,26,13,35,16.00
2017,06,26,13,36,16.00
2017,06,26,13,37,16.00
2017,06,26,13,38,16.00
2017,06,26,13,39,16.00
2017,06,26,13,40,16.00
2017,06,26,13,41,15.90
2017,06,26,13,42,15.90
2017,06,26,13,43,15.90
2017,06,26,13,44,16.00
2017,06,26,13,45,16.00
2017,06,26,13,46,16.10
2017,06,26,13,47,16.20
2017,06,26,13,48,16.20
2017,06,26,13,49,16.20
2017,06,26,13,50,16.20
2017,06,26,13,51,16.20
2017,06,26,13,52,16.30
2017,06,26,13,53,16.30
2017,06,26,13,54,16.30
2017,06,26,13,55,16.20
2017,06,26,13,56,16.20
2017,06,26,13,57,16.20
2017,06,26,13,58,16.20
2017,06,26,13,59,16.30
2017,06,26,14,00,16.30
2017,06,26,14,01,16.40
2017,06,26,14,02,16.40
2017,06,26,14,03,16.50
2017,06,26,14,04,16.50
2017,06,26,14,05,16.50
2017,06,26,14,06,16.60
2017,06,26,14,07,16.70
2017,06,26,14,08,16.80
2017,06,26,14,09,16.80
2017,06,26,14,10,16.90
2017,06,26,14,11,17.00
2017,06,26,14,12,17.00
2017,06,26,14,13,17.10
2017,06,26,14,14,17.10
2017,06,26,14,15,17.10
2017,06,26,14,16,17.10
2017,06,26,14,17,17.20
2017,06,26,14,18,17.10
2017,06,26,14,19,17.10
2017,06,26,14,20,17.10
2017,06,26,14,21,17.00
2017,06,26,14,22,17.00
2017,06,26,14,23,17.00
2017,06,26,14,24,17.00
2017,06,26,14,25,17.00
2017,06,26,14,26,17.00
2017,06,26,14,27,16.90
2017,06,26,14,28,16.90
2017,06,26,14,29,16.80
2017,06,26,14,30,16.70
2017,06,26,14,31,16.50
2017,06,26,14,32,16.30
2017,06,26,14,33,16.20
2017,06,26,14,34,16.10
2017,06,26,14,35,16.00
2017,06,26,14,36,15.90
2017,06,26,14,37,16.00
2017,06,26,14,38,16.00
2017,06,26,14,39,16.00
2017,06,26,14,40,16.10
2017,06,26,14,41,16.20
2017,06,26,14,42,16.30
2017,06,26,14,43,16.40
2017,06,26,14,44,16.50
2017,06,26,14,45,16.50
2017,06,26,14,46,16.60
2017,06,26,14,47,16.50
2017,06,26,14,48,16.30
2017,06,26,14,49,15.90
2017,06,26,14,50,15.50
2017,06,26,14,51,15.20
2017,06,26,14,52,15.10
2017,06,26,14,53,15.00
2017,06,26,14,54,14.90
2017,06,26,14,55,15.00
2017,06,26,14,56,15.00
2017,06,26,14,57,15.10
2017,06,26,14,58,15.10
2017,06,26,14,59,15.20
2017,06,26,15,00,15.30
2017,06,26,15,01,15.40
2017,06,26,15,02,15.50
2017,06,26,15,03,15.70
2017,06,26,15,04,15.80
2017,06,26,15,05,15.90
2017,06,26,15,06,16.00
2017,06,26,15,07,16.10
2017,06,26,15,08,16.30
2017,06,26,15,09,16.40
2017,06,26,15,10,16.50
2017,06,26,15,11,16.60
2017,06,26,15,12,16.70
2017,06,26,15,13,16.70
2017,06,26,15,14,16.80
2017,06,26,15,15,16.90
2017,06,26,15,16,17.00
2017,06,26,15,17,17.10
2017,06,26,15,18,17.30
2017,06,26,15,19,17.50
2017,06,26,15,20,17.60
2017,06,26,15,21,17.80
2017,06,26,15,22,17.90
2017,06,26,15,23,18.10
2017,06,26,15,24,18.20
2017,06,26,15,25,18.40
2017,06,26,15,26,18.50
2017,06,26,15,27,18.70
2017,06,26,15,28,18.80
2017,06,26,15,29,18.90
2017,06,26,15,30,19.10
2017,06,26,15,31,19.20
2017,06,26,15,32,19.30
2017,06,26,15,33,19.30
2017,06,26,15,34,19.40
2017,06,26,15,35,19.40
2017,06,26,15,36,19.50
2017,06,26,15,37,19.60
2017,06,26,15,38,19.60
2017,06,26,15,39,19.60
2017,06,26,15,40,19.60
2017,06,26,15,41,19.60
2017,06,26,15,42,19.50
2017,06,26,15,43,19.50
2017,06,26,15,44,19.50
2017,06,26,15,45,19.40
2017,06,26,15,46,19.40
2017,06,26,15,47,19.40
2017,06,26,15,48,19.40
2017,06,26,15,49,19.40
2017,06,26,15,50,19.40
2017,06,26,15,51,19.40
2017,06,26,15,52,19.40
2017,06,26,15,53,19.40
2017,06,26,15,54,19.50
2017,06,26,15,55,19.50
2017,06,26,15,56,19.50
2017,06,26,15,57,19.60
2017,06,26,15,58,19.60
2017,06,26,15,59,19.60
2017,06,26,16,00,19.60
2017,06,26,16,01,19.60
2017,06,26,16,02,19.60
2017,06,26,16,03,19.60
2017,06,26,16,04,19.60
2017,06,26,16,05,19.50
2017,06,26,16,06,19.50
2017,06,26,16,07,19.50
2017,06,26,16,08,19.50
2017,06,26,16,09,19.40
2017,06,26,16,10,19.40
2017,06,26,16,11,19.40
2017,06,26,16,12,19.50
2017,06,26,16,13,19.50
2017,06,26,16,14,19.50
2017,06,26,16,15,19.50
2017,06,26,16,16,19.50
2017,06,26,16,17,19.40
2017,06,26,16,18,19.40
2017,06,26,16,19,19.30
2017,06,26,16,20,19.30
2017,06,26,16,21,19.20
2017,06,26,16,22,19.20
2017,06,26,16,23,19.10
2017,06,26,16,24,19.00
2017,06,26,16,25,19.00
2017,06,26,16,26,18.90
2017,06,26,16,27,18.90
2017,06,26,16,28,18.90
2017,06,26,16,29,18.90
2017,06,26,16,30,18.90
2017,06,26,16,31,18.90
2017,06,26,16,32,18.90
2017,06,26,16,33,19.00
2017,06,26,16,34,19.00
2017,06,26,16,35,19.00
2017,06,26,16,36,19.10
2017,06,26,16,37,19.10
2017,06,26,16,38,19.20
2017,06,26,16,39,19.20
2017,06,26,16,40,19.30
2017,06,26,16,41,19.30
2017,06,26,16,42,19.30
2017,06,26,16,43,19.40
2017,06,26,16,44,19.40
2017,06,26,16,45,19.40
2017,06,26,16,46,19.40
2017,06,26,16,47,19.40
2017,06,26,16,48,19.40
2017,06,26,16,49,19.40
2017,06,26,16,50,19.30
2017,06,26,16,51,19.30
2017,06,26,16,52,19.20
2017,06,26,16,53,19.20
2017,06,26,16,54,19.20
2017,06,26,16,55,19.20
2017,06,26,16,56,19.20
2017,06,26,16,57,19.10
2017,06,26,16,58,19.10
2017,06,26,16,59,19.10
2017,06,26,17,00,19.20
2017,06,26,17,01,19.20
2017,06,26,17,02,19.30
2017,06,26,17,03,19.30
2017,06,26,17,04,19.40
2017,06,26,17,05,19.50
2017,06,26,17,06,19.60
2017,06,26,17,07,19.70
2017,06,26,17,08,19.80
2017,06,26,17,09,19.90
2017,06,26,17,10,20.00
2017,06,26,17,11,20.00
2017,06,26,17,12,20.10
2017,06,26,17,13,20.20
2017,06,26,17,14,20.20
2017,06,26,17,15,20.20
2017,06,26,17,16,20.30
2017,06,26,17,17,20.30
2017,06,26,17,18,20.40
2017,06,26,17,19,20.40